Regional Weather Roundup
Issued by NWS

Home | Current Version | Previous Version | Graphics & Text | Print | Product List | Glossary On
Versions: 1 2 3 4 5 6 7 8 9 10 11 12 13 14 15 16 17 18 19 20 21 22 23 24 25 26 27 28 29 30 31 32 33 34 35 36 37 38 39 40 41 42 43 44 45 46 47 48 49 50
000
ASUS45 KSLC 051810
RWRUT

UTAH REGIONAL WEATHER ROUNDUP
NATIONAL WEATHER SERVICE SALT LAKE CITY UT
1100 AM MST THU MAR 05 2015

UTZ001>011-023>025-051900-

NORTHERN UTAH

CITY           SKY/WX    TMP DP  RH WIND       PRES   REMARKS
BRIGHAM CITY   SUNNY     35  19  52 CALM      30.47S
DUGWAY         PTSUNNY   43  19  39 S6        30.45
HILL AFB       MOSUNNY   34  15  46 E7        30.45R WCI  28
LOGAN          SUNNY     34  19  54 CALM      30.45R
OGDEN          MOSUNNY   39  17  41 CALM      30.45R
PROVO AIRPORT  NOT AVBL
SALT LAKE CITY PTSUNNY   39  22  50 SE8       30.45S WCI  33
VERNAL         SUNNY     28  15  58 CALM      30.43R
WENDOVER       SUNNY     36  21  55 E6        30.45R WCI  31
HEBER CITY     MOSUNNY   28  14  54 CALM      30.45R
WEST JORDAN    SUNNY     37  23  56 SE14      30.45R WCI  29

$$

UTZ012>022-026-027-051900-

SOUTHERN/CENTRAL UTAH

CITY           SKY/WX    TMP DP  RH WIND       PRES   REMARKS
BLANDING       SUNNY     36  16  44 S5        30.48S WCI  32
BRYCE CANYON   SUNNY     21   8  57 N3        30.41R
CEDAR CITY     SUNNY     30   9  41 CALM      30.42R
DELTA          SUNNY     36  21  53 CALM      30.46R
HANKSVILLE     SUNNY     37  21  52 CALM      30.47S
MILFORD        SUNNY     36  22  56 SW6       30.43F WCI  31
MOAB/CYNLANDS  SUNNY     39  15  37 VRB6      30.43S WCI  35
PRICE          MOSUNNY   33  15  47 SE5       30.41R WCI  29
ST GEORGE      PTCLDY    43  28  56 N5        30.47S
KANAB          SUNNY     39  16  38 CALM      30.45S

$$

REGIONAL REPORTS     COLORADO/ARIZONA

CITY           SKY/WX    TMP DP  RH WIND       PRES   REMARKS
CRAIG, CO      PTSUNNY   26  10  50 E9        30.39S WCI  17
GRAND JUNCTION SUNNY     34   7  32 CALM      30.45S
RIFLE          SUNNY     30  10  43 E5        30.44F WCI  25
MONTROSE       SUNNY     31  11  43 CALM      30.45S
CORTEZ         SUNNY     38  11  32 CALM      30.40S
PAGE, AZ       SUNNY     42  19  39 N6        30.44R
GRAND CANYON   SUNNY     42  10  27 CALM      30.40S
KINGMAN        SUNNY     52  24  33 VRB7      30.37F
FLAGSTAFF      SUNNY     38   9  30 NE9       30.39S WCI  31

$$

REGIONAL REPORTS    NEVADA/IDAHO/WYOMING

CITY           SKY/WX    TMP DP  RH WIND       PRES   REMARKS
LAS VEGAS, NV  SUNNY     54  24  31 S6        30.38S
ELY            SUNNY     38  12  34 S3        30.40S
ELKO           SUNNY     38  17  42 CALM      30.43S
POCATELLO, ID  MOSUNNY   40  18  41 SW10      30.41S WCI  33
BURLEY         PTSUNNY   42  16  34 VRB3      30.39
EVANSTON, WY   MOSUNNY   27  14  58 SW12      30.38R WCI  17
ROCK SPRINGS   MOSUNNY   26  15  63 W26       30.31R WCI  10

$$



USA.gov is the U.S. government's official web portal to all federal, state and local government web resources and services.